This is the latest recevied weather packets stored in our database for station/object K3HW. If no packets are shown the sender has not sent any weather packets the latest 10 day(s).
| Time | Temp. | Humidity | Pressure | Rain* | Wind** | Luminosity | Snow |
|---|---|---|---|---|---|---|---|
| 1777914790 | 20.56° C | 38% | 1015.6 hPa | 0 mm | - | 523 W/m² | - |
| 1777914487 | 20.56° C | 37% | 1015.5 hPa | 0 mm | - | 553 W/m² | - |
| 1777914183 | 20.56° C | 37% | 1015.5 hPa | 0 mm | - | 122 W/m² | - |
| 1777913879 | 21.11° C | 36% | 1015.8 hPa | 0 mm | - | 229 W/m² | - |
| 1777913576 | 20.56° C | 37% | 1015.7 hPa | 0 mm | - | 621 W/m² | - |
| 1777913272 | 20.56° C | 36% | 1015.8 hPa | 0 mm | - | 139 W/m² | - |
| 1777912970 | 21.11° C | 36% | 1015.7 hPa | 0 mm | - | 636 W/m² | - |
| 1777912665 | 21.11° C | 35% | 1015.8 hPa | 0 mm | - | 305 W/m² | - |
| 1777912362 | 21.11° C | 38% | 1015.8 hPa | 0 mm | - | 692 W/m² | - |
| 1777912058 | 20.56° C | 41% | 1016 hPa | 0 mm | - | 749 W/m² | - |
| 1777911754 | 20.56° C | 35% | 1016 hPa | 0 mm | - | 750 W/m² | - |
| 1777911451 | 21.11° C | 35% | 1015.9 hPa | 0 mm | - | 746 W/m² | - |
| 1777911148 | 21.11° C | 39% | 1016.2 hPa | 0 mm | - | 742 W/m² | - |
| 1777910845 | 21.11° C | 37% | 1016.1 hPa | 0 mm | - | 739 W/m² | - |
| 1777910542 | 20.56° C | 37% | 1016.4 hPa | 0 mm | - | 737 W/m² | - |
| 1777910239 | 20.56° C | 37% | 1016.3 hPa | 0 mm | - | 726 W/m² | - |
| 1777909936 | 20.56° C | 38% | 1016.6 hPa | 0 mm | - | 726 W/m² | - |
| 1777909633 | 20° C | 38% | 1016.4 hPa | 0 mm | - | 724 W/m² | - |
| 1777909330 | 20° C | 37% | 1016.5 hPa | 0 mm | - | 714 W/m² | - |
| 1777909028 | 20° C | 39% | 1016.6 hPa | 0 mm | - | 712 W/m² | - |
| 1777908725 | 20° C | 40% | 1016.6 hPa | 0 mm | - | 698 W/m² | - |
| 1777908422 | 20° C | 40% | 1016.6 hPa | 0 mm | - | 697 W/m² | - |
| 1777908119 | 20° C | 41% | 1016.5 hPa | 0 mm | - | 691 W/m² | - |
| 1777907815 | 19.44° C | 41% | 1016.5 hPa | 0 mm | - | 684 W/m² | - |
| 1777907516 | 18.89° C | 43% | 1016.7 hPa | 0 mm | - | 668 W/m² | - |
* Rain latest hour (hover to see other rain measurements)
** Current wind speed in m/s (hover to see current wind gust speed)